Location: Kuppenheim
(48.8299°N, 8.2568°E)
Time: 23:39:46
(UTC+00:00)

Cosmos 1437 Rocket - Visible Passes

Search period start: 23 October 2021 00:00
Search period end: 02 November 2021 00:00
Orbit: 500 x 566 km, 81.2° (Epoch: 23 October)

Date Brightness Start Highest point End Pass type
(mag) Time Alt. Az. Time Alt. Az. Time Alt. Az.
30 Oct 2.8 05:34:11 10° N 05:37:58 79° E 05:41:44 10° SSE visible
31 Oct 2.9 05:24:30 10° N 05:28:16 76° ENE 05:32:02 10° SSE visible
01 Nov 2.9 05:14:48 10° N 05:18:34 74° ENE 05:22:20 10° SSE visible
